Home   Weather   Bamenda   Past weeks

Flag for Cameroon Past Weather in Bamenda, Cameroon — Yesterday and Last 2 Weeks

Now
82 °F

Partly sunny.


Feels Like: 89 °F
Forecast: 64 / 75 °F
Wind: 5 mph from North

Location: Douala Obs.

Current Time: Jul 28, 2017 at 6:14:48 pm

Latest Report: Jul 28, 2017 at 5:00 pm


Visibility: N/A

Pressure: 29.86 "Hg (25.94 "Hg at 1240m altitude)

Humidity: 79%

Dew Point: 75 °F

Location of BamendaLocation

Past Weather in Bamenda — Graph

°F

Bamenda Temperature Yesterday

Maximum temperature yesterday: 84 °F (at 2:00 pm)
Minimum temperature yesterday: 75 °F (at 1:00 am)
Average temperature yesterday: 78 °F

High & Low Weather Summary for the Past Weeks

 TemperatureHumidityPressure
High86 °F (Jul 18, 1:00 pm)100% (Jul 14, 12:00 am)30.04 "Hg (Jul 14, 12:00 am)
Low73 °F (Jul 16, 5:00 am)70% (Jul 18, 1:00 pm)29.83 "Hg (Jul 27, 5:00 pm)
Average77 °F93%29.95 "Hg
* Reported Jul 13 5:00 pm — Jul 28 5:00 pm, Bamenda. Weather by CustomWeather, © 2017

Note: Actual official high and low records may vary slightly from our data, if they occured in-between our weather recording intervals... More about our weather records

Advertising

Bamenda Weather History for the Previous 24 Hours

Scroll right to see more
 ConditionsComfort  
Time TempWeatherWind HumidityBarometerVisibility
5:00 pm
Fri, Jul 28
82 °FPartly sunny.5 mph79%29.86 "HgN/A
4:00 pm82 °FBroken clouds.3 mph79%29.86 "HgN/A
3:00 pm82 °FBroken clouds.2 mph79%29.89 "HgN/A
2:00 pm81 °FBroken clouds.3 mph89%29.89 "HgN/A
1:00 pm81 °FBroken clouds.5 mph84%29.92 "HgN/A
12:00 pm81 °FPartly sunny.No wind89%29.95 "HgN/A
11:00 am81 °FPartly sunny.3 mph89%29.95 "HgN/A
10:00 am79 °FBroken clouds.2 mph89%29.95 "HgN/A
9:00 am79 °FBroken clouds.3 mph94%29.95 "Hg5 mi
8:00 am77 °FBroken clouds.3 mph94%29.95 "Hg4 mi
7:00 am77 °FWarm.1 mph94%29.92 "Hg6 mi
6:00 am77 °FPartly cloudy.No wind94%29.92 "Hg4 mi
5:00 am77 °FPartly cloudy.No wind94%29.92 "Hg4 mi
4:00 am77 °FPartly cloudy.2 mph94%29.92 "Hg5 mi
2:00 am77 °FLight rain. Partly cloudy.2 mph100%29.92 "Hg5 mi
1:00 am77 °FPartly cloudy.1 mph100%29.92 "Hg5 mi
12:00 am77 °FPassing clouds.No wind94%29.95 "HgN/A
11:00 pm
Thu, Jul 27
77 °FPassing clouds.2 mph94%29.92 "HgN/A
10:00 pm77 °FPassing clouds.3 mph94%29.92 "HgN/A
9:00 pm77 °FPassing clouds.3 mph94%29.92 "HgN/A
8:00 pm79 °FPassing clouds.2 mph89%29.89 "HgN/A
7:00 pm79 °FPassing clouds.3 mph89%29.86 "HgN/A
6:00 pm79 °FPartly sunny.5 mph89%29.86 "HgN/A
Weather by CustomWeather, © 2017

See weather overviewHow to use our weather pages